Location: Dreilärchen
(47.9312°N, 8.6113°E)
Time: 02:35:19
(UTC+00:00)

Lacrosse 5 rocket - Pass Details

Date: 26 May 2022
Orbit: 457 x 629 km, 57.0° (Epoch: 26 June)

Event Time Altitude Azimuth Distance (km) Brightness Sun altitude
Exits shadow 01:21:48 27° 172° (S) 1,007 2.2 -16.0°
Maximum altitude 01:23:07 35° 132° (SE) 850 2.1 -15.9°
Drops below altitude 10° 01:26:49 10° 66° (ENE) 1,798 4.8 -15.6°
Sets 01:29:14 0° 58° (ENE) 2,728 6.0 -15.4°
